Regional Weather Roundup
Issued by NWS

Home | Current Version | Previous Version | Text Only | Print | Product List | Glossary Off
Versions: 1 2 3 4 5 6 7 8 9 10 11 12 13 14 15 16 17 18 19 20 21 22 23 24 25 26 27 28 29 30 31 32 33 34 35 36 37 38 39 40 41 42 43 44 45 46 47 48 49 50

000
ASUS45 KPSR 290210
RWRAZ

ARIZONA HOURLY REGIONAL WEATHER ROUNDUP
NATIONAL WEATHER SERVICE PHOENIX AZ
700 PM MST THU APR 28 2016

NOTE: FAIR INDICATES FEW OR NO CLOUDS BELOW 12,000 FEET WITH NO
SIGNIFICANT WEATHER AND/OR OBSTRUCTIONS TO VISIBILITY.

AZZ001>003-036-290300-
NORTHWEST ARIZONA

CITY           SKY/WX    TMP DP  RH WIND       PRES   REMARKS
BULLHEAD CITY  MOCLDY    72  43  35 SW6       29.74R
KINGMAN        PTCLDY    53  45  74 SE9       29.78S
$$

AZZ004>008-015-016-018-290300-
NORTH CENTRAL ARIZONA

CITY           SKY/WX    TMP DP  RH WIND       PRES   REMARKS
GRAND CANYON   CLOUDY    39  36  89 SW6       29.83R WCI  35
WILLIAMS       CLOUDY    37  34  87 SW6       29.91R WCI  33
PRESCOTT       MOCLDY    47  37  68 N6        29.82R
FLAGSTAFF      MIX PCPN  36  33  89 SW8       29.84R WCI  30
PAYSON         PTCLDY    52  19  28 SW5       29.82R
PAGE           MOCLDY    54  35  48 NW3       29.74R
$$

AZZ009>014-017-290300-
NORTHEAST ARIZONA

CITY           SKY/WX    TMP DP  RH WIND       PRES   REMARKS
WINSLOW        CLEAR     54  21  27 W14       29.77R
SAINT JOHNS    PTCLDY    53  16  23 SW16G23   29.77R
WINDOW ROCK    PTCLDY    50   9  19 SW16      29.79R
SHOW LOW       MOCLDY    46  10  23 S10G18    29.82R
$$

AZZ023-290300-
GREATER PHOENIX AREA

CITY           SKY/WX    TMP DP  RH WIND       PRES   REMARKS
PHOENIX        PTCLDY    72  26  18 W12       29.69R
BUCKEYE        PTCLDY    72  28  20 W8        29.72R
GLENDALE       PTCLDY    73  27  17 SW10      29.71R
DEER VALLEY    PTCLDY    71  28  20 W12       29.70R
SCOTTSDALE     CLEAR     71  23  16 SW7       29.72R
MESA-FALCON    PTCLDY   N/A N/A N/A W8        29.68S
MESA-GATEWAY   PTCLDY    70  19  14 W9        29.72R
$$

AZZ027-028-290300-
SOUTHWEST MARICOPA COUNTY AND PINAL COUNTY

CITY           SKY/WX    TMP DP  RH WIND       PRES   REMARKS
CASA GRANDE    CLEAR     70  25  18 W13       29.74R
$$

AZZ503-504-507>509-290300-
SOUTHEAST ARIZONA

CITY           SKY/WX    TMP DP  RH WIND       PRES   REMARKS
TUCSON         PTCLDY    70  25  18 W14       29.76R
RYAN FIELD     CLEAR     70  21  16 W13       29.75R
NOGALES        CLEAR     60  18  19 SW16G25   29.81R
DOUGLAS        PTCLDY    68  22  17 SW24G33   29.75R
SAFFORD        MOCLDY    63  34  33 W20G29    29.72R
$$

AZZ020-021-025-026-031-290300-
SOUTHWEST ARIZONA

CITY           SKY/WX    TMP DP  RH WIND       PRES   REMARKS
YUMA           PTCLDY    72  42  34 W8        29.73R
$$

CAZ031-033-041-043-047-048-061-290300-
SOUTHERN CALIFORNIA

CITY           SKY/WX    TMP DP  RH WIND       PRES   REMARKS
DOWNTOWN L.A.  CLEAR     62  50  64 VRB3      29.87R
L.A. AIRPORT   PTCLDY    60  50  69 W10       29.88R
SAN DIEGO      MOCLDY    62  49  62 W8        29.93R
BURBANK        CLEAR     61  48  62 S12       29.85S
ONTARIO        PTCLDY    62  40  44 SW15G23   29.86R
RIVERSIDE      PTCLDY    64  43  46 W7        29.87R
PALM SPRINGS   PTCLDY    75  34  22 NW24G33   29.72R
EL CENTRO NAS  PTCLDY    74  39  28 W22       29.75R
IMPERIAL       CLEAR     73  40  30 W17G30    29.72R
BLYTHE         MOCLDY    76  38  25 S8        29.70R
NEEDLES        MOCLDY    70  46  42 W9        29.71R
$$

NVZ020-UTZ003-290300-
SOUTHERN NEVADA-UTAH

CITY           SKY/WX    TMP DP  RH WIND       PRES   REMARKS
LAS VEGAS      CLOUDY    58  54  86 E3        29.72R
SALT LAKE CITY CLOUDY    52  32  46 E15       29.78R
$$

NMZ009-TXZ055-290300-
NEW MEXICO-WEST TEXAS

CITY           SKY/WX    TMP DP  RH WIND       PRES   REMARKS
ALBUQUERQUE    MOCLDY    68   5   8 SW12      29.70R
EL PASO        PTCLDY    76  20  12 W22G31    29.69R
$$


........................KEY........................
SKY/WX - SKY CONDITION/WEATHER
TMP    - TEMPERATURE IN FAHRENHEIT
DP     - DEW POINT IN FAHRENHEIT
RH     - RELATIVE HUMIDITY IN PERCENT
WIND   - DIRECTION AND SPEED IN MILES PER HOUR (MPH)
VRB    - VARIABLE WIND DIRECTION
PRES   - MEAN SEA LEVEL PRESSURE IN INCHES OF MERCURY
         F - FALLING PRESSURE   R - RISING PRESSURE
         S - STEADY PRESSURE
VSB    - VISIBILITY IN MILES
HX     - HEAT INDEX IN FAHRENHEIT
WCI    - WIND CHILL INDEX IN FAHRENHEIT
TC     - TEMPERATURE IN CELSIUS WHICH IS ALSO KNOWN AS
         TEMPERATURE IN CENTIGRADE
AFB    - AIR FORCE BASE
         LUKE AFB IS LUKE AIR FORCE BASE
         DAVIS-MONTHAN IS DAVIS-MONTHAN AIR FORCE BASE
NAS    - NAVAL AIR STATION
         EL CENTRO NAS IS EL CENTRO NAVAL AIR STATION
N/A    - NOT AVAILABLE




USA.gov is the U.S. government's official web portal to all federal, state and local government web resources and services.